This is the latest recevied weather packets stored in our database for station/object N3EDS. If no packets are shown the sender has not sent any weather packets the latest 10 day(s).
| Time | Temp. | Humidity | Pressure | Rain* | Wind** | Luminosity | Snow |
|---|---|---|---|---|---|---|---|
| 1777822240 | 8.33° C | 55% | 1017.6 hPa | 0 mm | - | 110 W/m² | - |
| 1777821938 | 8.33° C | 51% | 1017.2 hPa | 0 mm | - | 793 W/m² | - |
| 1777821635 | 8.33° C | 56% | 1017.4 hPa | 0 mm | - | 785 W/m² | - |
| 1777821333 | 8.33° C | 55% | 1017.4 hPa | 0 mm | - | 151 W/m² | - |
| 1777821030 | 8.33° C | 51% | 1017.6 hPa | 0 mm | - | 715 W/m² | - |
| 1777820726 | 7.78° C | 52% | 1017.6 hPa | 0 mm | - | 64 W/m² | - |
| 1777820422 | 7.22° C | 54% | 1017.5 hPa | 0 mm | - | 103 W/m² | - |
| 1777820120 | 7.22° C | 56% | 1017.4 hPa | 0 mm | - | 793 W/m² | - |
| 1777819817 | 7.78° C | 59% | 1017.5 hPa | 0 mm | - | 784 W/m² | - |
| 1777819515 | 7.78° C | 54% | 1017.4 hPa | 0 mm | - | 151 W/m² | - |
| 1777819212 | 7.78° C | 60% | 1017.7 hPa | 0 mm | - | 771 W/m² | - |
| 1777818909 | 7.22° C | 62% | 1017.7 hPa | 0 mm | - | 668 W/m² | - |
| 1777818605 | 7.22° C | 58% | 1017.7 hPa | 0 mm | - | 681 W/m² | - |
| 1777818302 | 6.67° C | 58% | 1017.6 hPa | 0 mm | - | 679 W/m² | - |
| 1777817998 | 6.67° C | 58% | 1017.7 hPa | 0 mm | - | 246 W/m² | - |
| 1777817696 | 6.67° C | 57% | 1017.8 hPa | 0 mm | - | 88 W/m² | - |
| 1777817393 | 6.11° C | 62% | 1017.5 hPa | 0 mm | - | 116 W/m² | - |
| 1777817089 | 5.56° C | 62% | 1017.8 hPa | 0 mm | - | 86 W/m² | - |
| 1777816785 | 6.11° C | 64% | 1017.7 hPa | 0 mm | - | 85 W/m² | - |
| 1777816484 | 5.56° C | 65% | 1017.6 hPa | 0 mm | - | 597 W/m² | - |
| 1777816181 | 5° C | 68% | 1017.5 hPa | 0 mm | - | 504 W/m² | - |
| 1777815878 | 5° C | 67% | 1017.6 hPa | 0 mm | - | 115 W/m² | - |
| 1777815575 | 5.56° C | 68% | 1017.4 hPa | 0 mm | - | 115 W/m² | - |
| 1777815273 | 5° C | 71% | 1017.4 hPa | 0 mm | - | 145 W/m² | - |
| 1777814968 | 5° C | 69% | 1017.6 hPa | 0 mm | - | 103 W/m² | - |
* Rain latest hour (hover to see other rain measurements)
** Current wind speed in m/s (hover to see current wind gust speed)